Location: Newark
(48.6461°N, 4.3644°W)
Time: 02:36:25
(UTC+00:00)

deb Explorer IX - Pass Details

Date: 29 January 2020
Orbit: 549 x 1099 km, 38.8° (Epoch: 25 February)

Event Time Altitude Azimuth Distance (km) Brightness Sun altitude
Rises 19:38:37 0° 210° (SSW) 3,495 ? -24.5°
Reaches altitude 10° 19:41:50 10° 193° (SSW) 2,656 ? -25.0°
Enters shadow 19:45:12 19° 162° (SSE) 2,184 ? -25.6°
